Tracking 33723 objects as of 10-Apr-2026
HD Live streaming from Space Station
objects crossing your sky now

ONEWEB-0112

Track ONEWEB-0112 now!
10-day predictions
ONEWEB-0112 is classified as:


NORAD ID: 48051
Int'l Code: 2021-025K
Perigee: 1,215.5 km
Apogee: 1,218.3 km
Inclination: 87.9 °
Period: 109.6 minutes
Semi major axis: 7587 km
RCS: Unknown
Launch date: March 25, 2021
Source: United States (US)
Launch site: VOSTOCHNY COSMODROME (VOSTO)
Your satellite tracking list
Your tracking list is empty




NASA's NSSDC Master Catalog

Two Line Element Set (TLE):
1 48051U 21025K   26100.15927383  .00000151  00000-0  37726-3 0  9990
2 48051  87.9001 333.7500 0001883  74.9250 285.2087 13.13469141244660
Source of the keplerian elements: AFSPC